Weather History for Unalakleet, AK

Change the Weather History Date:

Saturday, May 11, 2013

  Actual Average Record
Temperature  
Mean Temperature 30 °F -  
Max Temperature 33 °F 46 °F 66 °F (1983)
Min Temperature 26 °F 30 °F 8 °F (1965)
Degree Days  
Heating Degree Days 36    
Moisture  
Dew Point 27 °F    
Average Humidity 90    
Maximum Humidity 93    
Minimum Humidity 81    
Precipitation  
Precipitation 0.02 in - - ()
Sea Level Pressure  
Sea Level Pressure 30.03 in    
Wind  
Wind Speed 3 mph (West)    
Max Wind Speed 15 mph    
Max Gust Speed -    
Visibility 8 miles    
Events      
Averages and records for this station are not official NWS values.
T = Trace of Precipitation, MM = Missing Value Source: NWS Daily Summary

Daily Weather History Graph

Daily Weather History Graph

Search for Another Location

Airport:

Trip Planner

Search our weather history database for the weather conditions in past years. The results will help you decide how hot, cold, wet, or windy it might be!

Date:

Astronomy

May. 11, 2013 Rise Set
Actual Time 5:42 AM AKDT 11:39 PM AKDT
Civil Twilight 4:16 AM AKDT 1:08 AM AKDT
Nautical Twilight Sun does not rise Sun does not rise
Astronomical Twilight Sun does not rise Sun does not rise
Moon 6:46 AM AKDT (5/11) 12:47 AM AKDT (5/11)
Length of Visible Light 20h 51m
Length of Day
17h 56m
Waxing Crescent, 3% of the Moon is Illuminated
May 11
Waxing Crescent
May 17
First Quarter
May 24
Full
May 31
Last Quarter
Jun 8
New

Hourly Weather History & Observations

Time (AKDT) Temp. Windchill Dew Point Humidity Pressure Visibility Wind Dir Wind Speed Gust Speed Precip Events Conditions
12:16 AM 28.4 °F - 26.6 °F 93% 30.11 in 8.0 mi Calm Calm - N/A   Overcast
12:36 AM 28.4 °F - 26.6 °F 93% 30.11 in 3.0 mi Calm Calm - N/A   Overcast
12:56 AM 28.4 °F - 26.6 °F 93% 30.11 in 5.0 mi Calm Calm - N/A   Overcast
1:16 AM 28.4 °F - 26.6 °F 93% 30.11 in 9.0 mi Calm Calm - N/A   Overcast
1:36 AM 28.4 °F - 26.6 °F 93% 30.10 in 10.0 mi Calm Calm - N/A   Overcast
1:56 AM 28.4 °F - 26.6 °F 93% 30.10 in 10.0 mi Calm Calm - N/A   Overcast
2:16 AM 28.4 °F - 26.6 °F 93% 30.10 in 2.0 mi Calm Calm - N/A   Overcast
2:36 AM 28.4 °F - 26.6 °F 93% 30.09 in 1.8 mi Calm Calm - N/A   Overcast
2:56 AM 28.4 °F - 26.6 °F 93% 30.09 in 2.0 mi Calm Calm - N/A   Overcast
3:16 AM 28.4 °F - 26.6 °F 93% 30.09 in 4.0 mi Calm Calm - N/A   Overcast
3:36 AM 28.4 °F - 26.6 °F 93% 30.08 in 4.0 mi Calm Calm - N/A   Overcast
3:56 AM 28.4 °F - 26.6 °F 93% 30.08 in 3.0 mi Calm Calm - N/A   Overcast
4:16 AM 28.4 °F - 26.6 °F 93% 30.08 in 1.5 mi Calm Calm - N/A   Overcast
4:36 AM 28.4 °F - 26.6 °F 93% 30.07 in 1.8 mi Calm Calm - N/A   Overcast
4:56 AM 28.4 °F - 26.6 °F 93% 30.07 in 1.8 mi Calm Calm - N/A   Overcast
5:16 AM 28.4 °F - 26.6 °F 93% 30.07 in 2.0 mi Calm Calm - N/A   Overcast
5:36 AM 28.4 °F - 26.6 °F 93% 30.06 in 6.0 mi Calm Calm - N/A   Overcast
5:56 AM 28.4 °F - 26.6 °F 93% 30.06 in 9.0 mi Calm Calm - N/A   Overcast
6:16 AM 28.4 °F - 26.6 °F 93% 30.06 in 7.0 mi Calm Calm - N/A   Overcast
6:36 AM 28.4 °F - 26.6 °F 93% 30.06 in 5.0 mi Calm Calm - N/A   Overcast
6:56 AM 28.4 °F - 26.6 °F 93% 30.05 in 5.0 mi Calm Calm - N/A   Overcast
7:16 AM 28.4 °F - 26.6 °F 93% 30.06 in 8.0 mi Calm Calm - N/A   Overcast
7:36 AM 28.4 °F - 26.6 °F 93% 30.06 in 5.0 mi Calm Calm - N/A   Overcast
7:56 AM 28.4 °F 20.4 °F 26.6 °F 93% 30.05 in 6.0 mi NNW 8.1 mph - N/A   Overcast
8:16 AM 28.4 °F 23.3 °F 24.8 °F 86% 30.05 in 10.0 mi NNW 4.6 mph - N/A   Overcast
8:36 AM 28.4 °F 22.2 °F 26.6 °F 93% 30.05 in 10.0 mi NW 5.8 mph - N/A   Overcast
8:56 AM 28.4 °F 23.3 °F 24.8 °F 86% 30.05 in 10.0 mi NW 4.6 mph - N/A   Overcast
9:16 AM 28.4 °F 23.3 °F 26.6 °F 93% 30.05 in 10.0 mi NW 4.6 mph - N/A   Overcast
9:36 AM 28.4 °F 23.3 °F 26.6 °F 93% 30.05 in 10.0 mi NW 4.6 mph - N/A   Overcast
9:56 AM 28.4 °F 22.2 °F 26.6 °F 93% 30.04 in 10.0 mi NW 5.8 mph - N/A   Overcast
10:16 AM 28.4 °F 21.2 °F 26.6 °F 93% 30.04 in 10.0 mi NW 6.9 mph - N/A   Overcast
10:36 AM 28.4 °F 20.4 °F 26.6 °F 93% 30.04 in 10.0 mi NW 8.1 mph - N/A   Overcast
11:16 AM 28.4 °F 19.7 °F 26.6 °F 93% 30.05 in 10.0 mi NW 9.2 mph - N/A   Overcast
11:36 AM 28.4 °F 22.2 °F 26.6 °F 93% 30.04 in 10.0 mi NW 5.8 mph - N/A   Overcast
11:56 AM 28.4 °F 21.2 °F 26.6 °F 93% 30.04 in 10.0 mi WNW 6.9 mph - N/A   Overcast
12:16 PM 30.2 °F 23.4 °F 26.6 °F 86% 30.05 in 10.0 mi WNW 6.9 mph - 0.01 in   Overcast
12:36 PM 30.2 °F 24.3 °F 26.6 °F 86% 30.05 in 10.0 mi WNW 5.8 mph - 0.02 in   Overcast
12:56 PM 30.2 °F 24.3 °F 26.6 °F 86% 30.05 in 10.0 mi WNW 5.8 mph - 0.02 in   Overcast
1:16 PM 30.2 °F 25.4 °F 26.6 °F 86% 30.04 in 10.0 mi West 4.6 mph - N/A   Overcast
1:36 PM 30.2 °F 24.3 °F 26.6 °F 86% 30.04 in 10.0 mi West 5.8 mph - N/A   Overcast
1:56 PM 30.2 °F 23.4 °F 26.6 °F 86% 30.04 in 10.0 mi WSW 6.9 mph - N/A   Overcast
2:16 PM 32.0 °F 24.8 °F 28.4 °F 87% 30.04 in 10.0 mi West 8.1 mph - N/A   Overcast
2:36 PM 32.0 °F 24.8 °F 28.4 °F 87% 30.03 in 10.0 mi West 8.1 mph - N/A   Mostly Cloudy
2:56 PM 32.0 °F 24.2 °F 28.4 °F 87% 30.03 in 10.0 mi West 9.2 mph - N/A   Partly Cloudy
3:16 PM 32.0 °F 24.2 °F 28.4 °F 87% 30.02 in 10.0 mi West 9.2 mph - N/A   Clear
3:36 PM 33.8 °F 26.4 °F 28.4 °F 81% 30.02 in 10.0 mi West 9.2 mph - N/A   Clear
3:56 PM 33.8 °F 25.8 °F 28.4 °F 81% 30.01 in 10.0 mi West 10.4 mph - N/A   Clear
4:16 PM 33.8 °F 24.3 °F 28.4 °F 81% 30.01 in 10.0 mi West 13.8 mph - N/A   Clear
4:36 PM 33.8 °F 25.3 °F 28.4 °F 81% 30.01 in 10.0 mi West 11.5 mph - N/A   Clear
4:56 PM 33.8 °F 25.3 °F 28.4 °F 81% 30.01 in 10.0 mi West 11.5 mph - N/A   Partly Cloudy
5:16 PM 33.8 °F 25.3 °F 28.4 °F 81% 30.00 in 10.0 mi West 11.5 mph - N/A   Partly Cloudy
5:36 PM 33.8 °F 25.8 °F 28.4 °F 81% 30.00 in 10.0 mi West 10.4 mph - N/A   Clear
6:16 PM 33.8 °F 24.3 °F 28.4 °F 81% 29.99 in 10.0 mi WSW 13.8 mph - N/A   Clear
6:36 PM 33.8 °F 24.3 °F 28.4 °F 81% 29.98 in 10.0 mi SW 13.8 mph - N/A   Clear
6:56 PM 33.8 °F 23.9 °F 28.4 °F 81% 29.98 in 10.0 mi SW 15.0 mph - N/A   Scattered Clouds
7:16 PM 32.0 °F 23.6 °F 28.4 °F 87% 29.98 in 10.0 mi WSW 10.4 mph - N/A   Scattered Clouds
7:36 PM 32.0 °F 25.6 °F 28.4 °F 87% 29.98 in 10.0 mi SW 6.9 mph - N/A   Clear
7:56 PM 30.2 °F 22.6 °F 28.4 °F 93% 29.98 in 10.0 mi WSW 8.1 mph - N/A   Clear
8:16 PM 30.2 °F 21.9 °F 26.6 °F 86% 29.98 in 10.0 mi WSW 9.2 mph - N/A   Clear
8:36 PM 30.2 °F 21.9 °F 28.4 °F 93% 29.97 in 10.0 mi WNW 9.2 mph - N/A   Clear
8:56 PM 30.2 °F 24.3 °F 28.4 °F 93% 29.97 in 10.0 mi West 5.8 mph - N/A   Partly Cloudy
9:16 PM 30.2 °F 25.4 °F 26.6 °F 86% 29.97 in 10.0 mi West 4.6 mph - N/A   Clear
9:36 PM 28.4 °F 23.3 °F 26.6 °F 93% 29.97 in 10.0 mi West 4.6 mph - N/A   Mostly Cloudy
9:56 PM 30.2 °F 24.3 °F 28.4 °F 93% 29.96 in 10.0 mi SW 5.8 mph - N/A   Overcast
10:16 PM 30.2 °F 22.6 °F 26.6 °F 86% 29.96 in 10.0 mi SSW 8.1 mph - N/A   Overcast
10:36 PM 28.4 °F 21.2 °F 24.8 °F 86% 29.95 in 10.0 mi SSW 6.9 mph - N/A   Overcast
10:56 PM 28.4 °F 22.2 °F 26.6 °F 93% 29.95 in 10.0 mi SW 5.8 mph - N/A   Overcast
11:16 PM 28.4 °F 21.2 °F 26.6 °F 93% 29.95 in 10.0 mi SSW 6.9 mph - N/A   Overcast
11:36 PM 26.6 °F 20.0 °F 24.8 °F 93% 29.95 in 10.0 mi WSW 5.8 mph - N/A   Overcast
11:56 PM 28.4 °F 22.2 °F 26.6 °F 93% 29.95 in 10.0 mi West 5.8 mph - N/A   Overcast